Location: NJAA Observatory
(40.6819°N, 74.8979°W)
Time: 16:21:00
(UTC-04:00)

Cosmos 2237 Rocket - Visible Passes

Search period start: 30 May 2016 00:00
Search period end: 09 June 2016 00:00
Orbit: 835 x 850 km, 71.0° (Epoch: 29 May)

Date Brightness Start Highest point End Pass type
(mag) Time Alt. Az. Time Alt. Az. Time Alt. Az.
30 May 4.4 04:12:27 10° N 04:17:24 30° ENE 04:22:21 10° ESE visible
30 May 5.2 20:48:49 10° W 20:53:00 21° NW 20:57:13 10° N visible
31 May 4.4 03:57:39 10° N 04:02:33 29° NE 04:07:26 10° ESE visible
01 Jun 4.4 03:42:53 10° N 03:47:43 28° NE 03:52:31 10° ESE visible
02 Jun 4.4 03:28:07 10° N 03:32:51 26° NE 03:37:35 10° ESE visible
03 Jun 4.4 03:13:20 10° N 03:18:00 25° NE 03:22:39 10° ESE visible
03 Jun 2.4 04:56:51 10° NW 05:02:19 49° WSW 05:07:46 10° S visible
04 Jun 4.5 02:58:33 10° N 03:03:09 24° NE 03:07:43 10° ESE visible
04 Jun 2.4 04:42:00 10° NNW 04:47:30 52° WSW 04:53:00 10° S visible
05 Jun 4.5 02:43:47 10° N 02:48:18 23° NE 02:52:46 10° ESE visible
05 Jun 2.3 04:27:09 10° NNW 04:32:42 55° WSW 04:38:13 10° S visible
06 Jun 4.5 02:29:02 10° N 02:33:26 22° NE 02:37:49 10° ESE visible
06 Jun 2.3 04:12:18 10° NNW 04:17:53 58° WSW 04:23:26 10° S visible
07 Jun 4.5 02:14:16 10° N 02:18:34 21° NE 02:22:52 10° ESE visible
07 Jun 2.2 03:57:27 10° NNW 04:03:03 61° WSW 04:08:39 10° S visible
08 Jun 4.5 01:59:30 10° N 02:03:42 21° NE 02:07:54 10° E visible
08 Jun 2.2 03:42:37 10° NNW 03:48:15 64° WSW 03:53:51 10° S visible
